Temp
23 22 21 21 21 21 21 21 21 21 21 21 21 20 20 20 20 20 20 21 21 20 20 20 20 20 19 19 19 19 19 20 20 20 19 19 19 19 19 20 20 20 20 19 19 19 19 19 19 19 19 19 18 18 18 18 18 18 18 18 18 18 18 18 18 18 17 17 17 17 17 17 17 17 17 17 17 17 17 18 18 18 17 16 16
22 21 21 21 21 21 20 21 21 21 21 21 21 20 20 20 20 20 20 20 20 20 20 20 19 19 19 19 19 19 20 20 20 20 20 19 19 19 19 19 19 19 19 19 19 19 19 19 19 18 18 18 18 18 18 18 18 18 18 18 18 18 18 18 17 17 17 17 17 17 17 17 17 17 17 17 17 17 17 17 18 18 17 16 16
22 21 20 21 21 20 20 21 21 22 21 21 20 20 20 20 20 20 20 20 20 20 19 19 19 19 19 19 20 20 20 20 20 20 20 20 19 19 19 19 19 19 19 19 19 19 19 19 19 18 18 18 18 18 18 18 18 18 18 18 18 18 17 17 17 17 17 17 17 17 17 17 17 17 17 16 17 17 17 17 17 17 16 16 17
22 21 20 21 21 20 21 22 22 22 22 21 20 20 20 20 20 20 20 20 20 19 19 19 19 19 19 20 20 20 21 21 21 20 20 20 19 19 19 19 19 19 19 19 19 19 19 19 19 18 18 18 18 18 18 18 18 18 17 17 17 17 17 17 17 17 17 18 18 18 18 18 18 17 17 17 17 16 17 17 16 16 16 16 17
22 21 20 21 20 21 21 22 22 22 22 21 21 20 20 20 20 20 20 20 20 19 19 19 20 20 20 20 20 21 20 20 20 20 20 20 19 19 19 19 19 19 19 19 19 19 19 19 18 18 18 18 18 18 17 17 18 18 17 17 17 17 17 17 17 17 17 18 19 20 20 19 18 17 17 17 16 16 16 16 16 16 16 16 16
22 21 20 20 20 21 21 21 22 22 22 22 21 20 20 20 20 20 20 20 20 20 20 20 20 20 20 20 20 21 20 20 19 19 19 20 19 19 19 19 19 19 19 19 19 19 18 19 18 18 18 18 18 17 17 17 18 17 17 17 17 17 17 17 17 18 18 19 20 21 21 20 19 18 17 17 16 17 17 16 16 16 16 16 16
22 21 21 20 20 20 21 21 21 21 22 22 21 21 20 20 20 20 20 20 20 20 20 20 20 20 20 20 20 20 19 19 19 19 19 19 19 19 19 19 19 19 19 19 19 19 19 18 18 18 18 18 18 17 17 17 17 17 17 17 17 17 17 17 17 18 19 20 21 21 21 20 19 18 17 17 17 17 17 16 16 16 16 16 17
21 21 21 21 20 20 21 21 21 21 21 22 22 21 21 20 20 20 20 20 20 21 20 20 20 20 20 20 20 19 19 19 19 19 19 19 19 19 19 19 18 18 18 18 18 19 19 18 18 18 18 18 17 17 17 17 17 17 17 17 17 17 17 17 18 18 19 20 21 21 21 20 19 18 17 17 17 16 16 16 16 16 16 16 17
22 21 21 21 20 20 21 21 21 21 21 21 21 22 21 21 20 20 21 21 21 20 20 20 20 20 20 19 19 19 19 19 19 19 19 19 18 18 18 18 18 18 18 18 18 18 18 18 18 18 18 18 17 17 17 17 17 17 17 17 17 17 17 17 18 19 20 21 21 21 21 20 20 19 17 17 17 16 17 17 17 16 16 16 16
22 22 21 21 20 20 21 21 21 21 21 21 21 21 21 21 21 21 21 21 20 20 20 20 19 19 19 19 19 19 19 19 19 19 19 19 18 18 18 18 18 18 18 18 18 18 18 18 18 18 18 17 17 17 17 17 17 17 17 17 17 17 17 18 19 20 21 21 21 20 20 20 20 19 17 16 16 16 17 17 17 16 15 15 15
22 22 21 20 20 21 21 21 21 21 21 21 21 21 21 21 21 21 20 20 20 20 19 19 19 19 19 19 19 19 19 19 19 19 18 18 18 18 18 18 18 18 18 18 18 18 18 18 18 18 18 17 17 17 17 17 17 17 17 17 17 17 18 18 19 21 21 21 20 19 19 20 20 18 16 16 16 16 16 16 16 16 15 15 15
22 22 21 20 20 21 21 21 21 21 21 21 21 20 20 20 20 20 20 20 19 19 19 19 19 19 19 19 19 19 19 19 18 18 18 18 18 18 18 18 18 18 18 18 18 17 18 18 18 18 18 18 18 18 17 18 17 17 17 17 17 17 18 19 20 21 21 21 20 20 20 20 19 17 16 17 17 16 16 16 16 16 15 15 15
22 22 20 20 20 20 20 20 20 21 21 20 20 20 20 20 20 20 20 19 19 19 19 19 19 19 19 19 19 19 19 19 18 18 18 18 18 18 18 18 18 18 18 18 18 18 18 17 17 17 18 18 18 18 18 18 18 18 18 18 18 17 18 19 20 21 21 21 20 20 20 20 18 17 16 17 17 16 16 16 16 15 15 15 15
22 22 20 20 20 20 20 20 20 20 20 20 20 20 20 20 20 20 20 20 19 19 19 19 19 19 19 19 19 19 19 19 19 18 18 18 18 18 18 18 18 18 18 18 18 18 17 17 17 17 17 18 18 18 18 18 18 18 18 18 18 18 18 19 20 21 21 20 20 20 20 19 18 16 17 17 17 16 16 16 16 15 15 15 15
22 21 20 20 20 20 20 20 20 20 20 20 20 20 20 20 20 20 20 20 19 19 19 19 19 19 19 19 19 19 19 19 19 19 18 18 18 18 18 18 18 18 18 18 18 18 17 17 17 17 17 17 18 18 18 18 18 19 19 18 18 18 19 19 21 21 21 20 20 20 20 18 17 16 17 17 17 16 16 16 15 15 15 15 15
22 20 20 20 19 19 20 19 19 20 20 20 20 20 20 20 20 20 20 19 19 19 19 19 19 19 19 19 19 19 19 19 19 19 19 18 18 18 18 18 18 18 18 18 18 18 17 17 17 17 17 17 18 18 18 18 18 19 19 18 19 19 19 20 21 21 21 21 20 20 20 18 16 17 17 17 17 16 16 16 15 15 15 15 15
21 20 20 19 19 19 19 19 19 19 20 20 20 20 20 20 19 19 19 19 19 19 19 19 19 19 19 19 19 19 19 19 18 18 18 18 18 18 18 18 18 18 18 18 18 18 17 17 17 17 17 17 18 18 18 18 18 19 19 19 19 19 19 20 21 21 21 20 20 20 20 18 17 17 17 17 16 16 16 15 15 15 15 15 15
21 20 19 19 19 19 19 19 19 19 19 19 20 20 20 20 19 19 19 19 19 19 19 19 19 19 19 19 19 19 19 19 18 18 18 18 18 18 18 18 18 18 18 17 17 17 17 17 17 17 17 17 18 18 18 18 19 19 19 19 19 19 19 20 21 21 20 20 20 20 19 18 17 16 16 16 16 16 16 15 15 15 15 15 15
21 20 19 19 19 19 19 19 19 19 19 19 19 19 19 19 19 19 19 19 19 19 19 19 19 19 19 19 19 19 19 19 18 18 18 18 18 18 18 18 18 18 17 17 17 17 17 17 17 17 17 17 18 18 18 19 19 19 19 19 19 19 19 20 21 21 20 20 21 20 18 17 16 16 16 16 16 16 16 15 15 15 15 15 15
21 20 20 19 19 19 19 19 19 19 19 18 18 19 19 19 19 19 19 19 19 19 19 18 18 18 19 19 19 18 18 18 18 18 18 18 18 18 18 18 18 18 17 17 17 17 17 17 17 17 17 17 18 18 18 19 19 19 19 19 19 19 19 20 21 21 21 20 20 20 18 16 16 16 16 16 16 16 16 15 15 15 15 15 15
20 20 20 20 20 19 19 20 19 19 19 18 18 18 18 18 18 18 18 19 18 18 18 18 18 19 19 19 18 18 18 18 18 18 18 18 18 18 18 18 17 17 17 17 17 17 17 17 17 17 17 17 17 18 18 18 19 19 19 19 19 19 20 20 20 21 21 20 20 19 17 16 16 16 16 16 16 16 15 15 15 15 15 15 15
20 21 21 20 20 20 20 20 20 19 18 18 18 18 17 18 18 18 18 18 18 18 18 18 18 19 19 19 18 18 18 18 18 18 18 18 18 18 18 18 17 17 17 17 17 17 17 17 17 17 17 17 18 18 18 18 19 19 19 19 19 20 20 20 20 21 21 21 20 19 17 16 16 16 16 16 16 16 15 15 15 15 15 15 15
21 21 21 21 21 21 21 20 19 19 18 18 18 18 18 18 18 18 18 18 18 18 18 18 18 18 19 19 18 19 19 19 18 18 18 18 18 18 18 18 18 17 17 17 17 17 17 17 17 17 17 18 18 19 19 19 19 19 20 19 19 20 20 20 20 21 21 20 20 18 17 16 16 16 16 16 16 16 16 15 15 15 15 15 15
21 21 21 21 21 21 21 20 19 18 19 18 18 18 18 18 18 18 18 18 18 18 18 18 18 18 18 18 19 19 19 19 18 18 18 18 18 18 18 18 18 18 18 18 17 17 17 17 17 17 18 18 19 19 20 20 19 19 19 19 19 20 20 20 20 21 20 20 19 18 17 16 16 16 16 16 16 16 16 15 15 15 15 15 15
21 21 21 21 21 21 20 20 19 18 19 18 18 18 18 18 18 18 18 18 18 18 18 18 18 18 18 18 19 18 19 18 18 18 19 18 18 18 18 18 18 18 18 18 18 18 17 17 17 18 18 18 19 19 20 20 20 20 20 19 19 19 20 20 20 21 20 19 19 18 17 16 16 16 16 16 16 16 16 16 15 15 15 15 15
21 21 21 20 20 20 20 19 19 19 19 19 18 18 18 18 18 18 17 18 18 18 18 18 18 18 18 18 18 18 19 18 18 18 19 19 19 19 19 18 18 18 18 19 19 18 18 18 18 18 18 18 19 19 19 20 20 20 20 20 19 20 20 21 20 20 20 19 18 18 17 16 16 16 16 16 16 16 15 15 15 15 15 15 15
21 21 21 20 20 20 20 19 19 19 19 18 18 18 19 18 18 18 17 18 18 18 18 18 18 18 18 18 18 18 19 18 18 18 19 19 19 19 19 19 19 19 18 19 18 18 19 18 18 18 18 19 19 19 19 19 19 20 20 20 20 20 20 20 20 20 20 19 18 18 17 16 16 16 16 16 16 16 15 15 15 15 15 15 15
21 21 20 20 20 20 20 19 19 19 19 18 18 18 18 18 18 18 18 18 18 18 18 18 18 18 18 17 18 18 18 18 18 18 19 19 19 18 19 18 19 19 19 19 18 18 18 18 18 19 19 19 19 19 19 19 19 20 20 20 20 20 20 20 20 20 19 19 18 18 18 17 16 16 16 16 16 16 16 15 15 15 15 15 15
20 20 20 20 20 20 20 19 19 19 19 18 18 18 17 18 18 18 18 18 18 18 17 17 18 17 18 18 18 18 18 18 17 18 18 18 18 18 18 18 18 19 18 18 18 18 18 18 19 19 19 19 19 19 20 20 19 19 20 20 20 20 20 20 20 20 20 19 18 18 18 17 16 16 16 16 16 16 16 16 15 15 15 15 15
20 19 20 20 20 20 20 19 20 19 19 18 18 18 18 17 18 18 17 17 18 18 17 17 17 18 18 18 18 17 17 17 17 17 18 18 17 17 17 17 17 18 18 18 18 18 18 18 19 19 19 19 19 19 20 20 20 19 19 20 20 20 20 20 20 20 19 19 18 18 18 17 17 16 16 16 15 16 16 16 15 15 15 15 15
18 18 19 20 20 20 20 20 20 19 19 19 18 18 18 18 18 18 18 18 18 18 17 17 17 17 17 17 17 17 17 17 17 18 18 17 17 17 17 17 17 17 17 17 18 18 18 18 19 19 19 19 19 19 20 20 20 20 20 20 20 20 20 20 20 20 19 19 19 18 18 18 17 16 16 16 15 15 16 16 15 15 15 15 15
17 17 18 19 20 20 20 20 19 19 19 19 18 17 18 18 19 19 19 19 18 17 17 17 17 17 17 17 17 16 16 16 18 18 17 17 16 17 17 17 17 17 17 17 18 17 17 17 18 19 19 19 19 19 20 20 21 20 20 20 20 20 20 20 20 19 19 19 19 18 18 17 17 17 16 16 15 15 15 15 15 15 15 15 15
17 18 18 19 19 20 20 20 19 19 19 19 19 18 19 19 19 20 19 18 17 17 17 17 17 17 17 17 16 15 16 17 18 18 17 16 16 16 17 17 17 16 16 17 17 17 17 17 18 18 18 19 19 19 19 19 20 20 20 20 20 20 20 20 20 19 19 19 19 19 18 17 17 16 16 16 16 16 15 15 15 15 15 15 15
18 18 18 18 19 19 19 19 19 18 19 19 19 19 19 19 20 19 18 18 18 17 17 17 17 16 17 17 16 15 16 17 18 18 16 16 16 16 16 16 16 16 16 16 16 17 17 17 18 19 19 19 19 19 19 19 19 20 20 20 20 20 20 20 20 19 19 19 19 19 19 18 17 17 17 16 16 16 16 15 15 15 15 15 15
17 18 18 18 19 19 19 19 19 18 19 19 19 19 19 20 19 19 18 17 17 17 17 17 17 16 16 17 16 15 16 18 17 16 16 15 16 16 16 16 16 16 16 16 16 17 17 18 19 19 19 19 19 19 19 19 19 19 19 19 20 20 20 20 19 19 19 19 19 19 19 19 18 18 17 16 16 16 16 16 16 16 15 15 15
18 18 18 18 18 19 19 19 19 19 19 19 19 19 19 19 19 18 18 17 17 17 17 17 17 16 16 16 16 16 17 17 16 15 15 15 16 16 16 16 16 16 16 16 16 17 17 18 18 19 19 19 19 19 19 19 18 18 18 18 18 19 19 19 19 19 19 19 18 19 19 19 18 18 17 17 17 16 16 16 16 16 16 16 15
18 18 18 17 17 19 19 19 19 19 19 19 19 19 19 18 18 18 18 18 18 17 17 17 17 16 17 16 16 16 17 16 15 15 15 15 16 16 16 16 16 16 16 16 16 16 17 17 18 18 19 19 19 19 19 18 18 18 18 17 17 17 18 18 18 19 18 18 18 18 18 18 17 18 18 18 17 17 17 17 17 16 16 16 16
18 18 18 17 17 19 19 18 19 19 18 18 18 18 18 18 18 18 17 17 17 17 17 17 17 17 17 17 16 16 16 16 15 15 15 15 16 16 16 16 16 16 16 16 16 16 16 17 17 18 18 19 19 19 19 18 18 18 17 17 17 17 17 17 17 17 17 17 18 18 17 17 17 17 17 18 18 17 17 17 17 16 16 16 16
19 18 19 17 17 19 18 17 18 18 18 18 18 18 18 17 17 17 17 17 17 17 17 17 17 17 17 17 17 16 16 16 16 16 15 15 16 16 16 16 16 16 16 16 16 16 16 16 17 17 18 18 19 19 18 18 18 18 17 17 17 17 16 17 17 17 17 17 17 17 17 17 17 16 16 17 17 17 17 17 17 16 16 16 16
19 19 18 17 17 18 18 17 17 18 18 18 17 17 17 17 17 17 18 18 18 18 18 18 17 17 17 17 17 17 16 16 16 16 15 16 16 16 16 16 16 16 16 16 16 16 16 16 17 17 17 18 18 18 18 18 18 17 17 17 17 17 16 16 17 17 17 17 17 17 17 17 17 17 16 16 16 16 16 16 16 16 16 16 16
19 19 18 17 17 18 18 17 17 18 18 18 17 17 18 18 18 19 19 19 18 18 18 18 18 17 17 17 17 17 17 17 16 16 16 16 16 15 16 16 15 16 16 16 16 16 16 16 17 17 17 18 18 18 17 18 18 17 17 17 17 17 17 17 17 18 18 17 17 17 17 17 17 17 16 16 16 16 16 16 16 16 16 16 16
20 19 19 18 17 18 18 18 18 18 18 18 18 18 18 19 19 20 20 19 19 19 19 18 17 17 17 17 17 17 17 17 17 16 16 16 16 16 16 15 15 16 16 16 16 16 16 16 16 17 17 17 17 17 17 17 18 19 19 19 18 17 17 17 17 17 18 18 18 18 17 18 18 17 17 17 17 16 16 16 16 15 15 15 15
20 19 19 18 17 17 17 18 18 18 18 18 18 18 19 19 19 20 20 20 19 19 19 18 18 17 17 17 17 17 17 17 17 16 16 16 16 16 16 15 15 15 16 16 16 16 15 16 16 17 17 17 16 17 16 17 18 19 19 19 19 18 17 18 18 17 17 17 18 18 18 18 18 18 17 17 17 17 17 17 16 16 16 16 16
20 19 19 19 18 18 18 18 19 19 19 18 19 19 19 18 18 18 18 19 18 18 18 18 18 18 17 17 17 17 17 17 17 17 17 16 16 16 16 16 16 15 16 16 16 16 15 15 16 16 17 17 16 16 16 16 17 19 19 19 19 18 17 18 18 17 17 18 18 18 18 18 18 18 18 18 17 17 17 16 16 16 16 16 16
20 20 20 20 20 19 19 18 19 19 19 19 19 19 18 18 18 18 18 18 18 18 18 18 18 18 18 18 17 17 17 17 17 17 17 16 16 16 16 16 16 16 16 16 16 16 16 16 16 16 16 17 17 16 16 16 16 17 18 18 19 18 16 18 19 17 17 18 18 18 18 18 18 18 18 18 18 17 17 16 16 16 16 16 16
20 20 20 20 20 20 19 19 19 20 19 19 19 18 18 18 18 18 19 19 19 19 19 19 18 18 18 18 17 17 17 17 17 17 17 17 16 16 16 17 17 16 16 17 17 16 16 16 16 17 17 16 17 16 16 16 16 16 17 17 17 17 17 19 19 18 17 17 18 18 18 18 18 18 18 18 17 17 17 16 16 16 16 16 16
20 20 20 20 20 20 19 19 19 20 19 19 19 18 18 19 19 19 20 20 20 19 19 18 18 18 18 17 17 17 17 17 17 17 17 17 16 16 16 16 17 17 17 17 17 17 17 17 17 17 17 16 16 16 16 16 16 16 16 17 16 17 18 19 19 18 18 17 17 18 18 17 17 17 17 17 17 16 16 16 16 16 16 15 15
20 20 20 20 20 19 19 19 19 19 19 19 18 18 19 19 19 20 20 20 19 19 18 18 18 18 17 17 17 17 17 17 17 17 17 17 16 16 16 16 17 17 17 17 17 17 17 17 16 16 16 16 16 16 16 16 17 17 16 16 17 17 18 18 19 19 19 18 17 17 17 16 16 16 16 16 16 16 16 16 16 16 16 15 15
20 20 20 20 19 19 19 19 19 19 19 18 18 18 19 19 19 20 20 19 19 18 18 18 17 17 17 17 17 17 17 17 17 16 17 17 17 16 16 16 16 17 17 17 17 16 16 16 16 16 16 16 16 16 16 17 18 17 17 17 18 18 18 18 19 20 20 19 17 17 16 16 16 16 16 16 16 16 16 16 16 16 16 15 15
20 20 20 19 19 19 19 19 19 18 18 18 18 18 18 19 19 19 19 19 18 18 18 17 17 17 17 17 17 17 17 17 16 16 16 16 16 16 16 16 16 16 17 16 16 16 16 16 16 16 16 16 16 16 17 17 17 17 17 18 18 18 19 19 19 19 20 20 19 18 17 17 17 16 16 16 16 16 16 16 16 16 16 16 15
20 20 20 19 19 19 19 19 18 18 18 18 18 18 18 19 19 19 19 19 18 18 18 17 17 18 17 17 17 17 17 17 17 16 16 16 16 16 16 16 16 16 16 16 16 16 16 16 16 16 16 16 16 16 16 17 17 16 17 18 19 19 19 19 19 19 20 20 19 19 19 18 18 17 16 16 17 17 17 16 16 16 16 15 15
Height
784 786 789 791 793 794 796 797 798 799 800 801 802 804 805 806 808 809 810 811 813 814 816 817 818 819 820 820 821 821 822 822 823 823 824 825 825 826 827 827 827 827 828 828 829 829 830 830 831 831 832 832 833 833 833 833 833 833 833 833 833 833 833 833 834 834 834 834 834 834 834 834 834 834 834 834 834 834 833 833 833 833 832 832 832
784 787 789 791 793 794 796 797 799 800 801 801 803 804 805 807 808 810 811 813 814 815 817 818 819 820 821 822 822 823 823 823 824 824 825 825 826 827 827 828 828 828 829 830 830 830 831 831 832 832 833 833 833 834 834 834 834 834 834 834 835 835 834 835 835 835 835 835 835 835 835 835 835 835 835 835 835 835 835 834 834 834 833 833 833
783 787 789 791 793 795 797 798 799 800 801 802 804 805 807 808 810 811 812 814 815 816 818 819 820 821 822 823 824 824 825 825 825 825 826 826 827 828 828 829 829 829 830 831 831 831 832 832 833 833 834 834 834 834 835 835 835 835 835 835 836 836 836 836 836 836 836 836 836 836 836 836 836 836 836 837 836 836 836 835 835 835 835 835 835
784 787 789 792 794 796 797 798 799 800 801 803 805 806 808 810 812 813 814 815 816 817 818 819 820 821 823 824 825 825 826 826 826 826 826 827 827 828 829 830 830 831 831 832 832 832 833 833 834 834 835 835 835 835 835 836 836 836 836 836 836 837 837 837 837 837 837 837 836 837 838 838 838 838 838 838 838 837 837 836 836 836 836 836 836
784 787 790 792 795 796 797 798 799 800 802 803 805 807 809 811 813 814 815 816 817 818 819 820 821 822 823 824 825 826 827 827 827 827 827 827 828 829 830 831 832 832 832 833 833 833 834 834 835 835 836 836 836 836 836 836 837 837 837 837 838 838 838 838 838 838 838 837 837 838 840 839 839 840 839 839 839 839 838 838 837 837 838 838 838
785 788 790 793 796 797 797 798 799 801 802 804 805 807 809 811 813 815 816 817 818 819 819 820 821 822 823 825 826 826 827 828 828 829 829 829 829 830 830 831 832 833 833 833 834 834 835 835 836 836 837 837 837 837 837 837 838 838 838 838 839 839 839 840 840 840 839 838 839 840 841 841 841 841 841 841 840 840 840 839 839 839 839 839 839
786 788 791 794 796 797 798 799 800 802 803 805 806 808 809 811 813 814 816 818 819 819 820 821 822 823 824 825 826 827 828 829 829 829 830 830 831 831 831 832 832 833 833 834 835 835 836 836 836 837 837 838 838 838 838 838 838 839 839 839 840 840 840 841 841 840 839 840 841 841 842 842 842 842 843 842 842 842 841 841 841 841 840 841 840
786 789 792 795 797 798 799 800 801 803 804 806 807 809 810 812 813 814 816 818 819 820 821 822 823 824 825 826 827 828 828 829 829 830 831 831 831 832 833 833 833 833 834 834 835 836 836 837 837 838 838 838 838 838 839 839 839 840 840 840 841 841 842 842 842 841 840 842 843 842 843 843 843 843 844 844 843 843 843 842 842 842 842 842 842
787 790 792 795 797 798 799 801 802 804 805 807 808 810 811 813 814 815 817 818 820 821 823 823 824 825 825 826 827 828 829 829 829 830 831 832 832 833 834 834 834 834 834 835 836 837 837 838 838 839 839 839 839 840 840 840 840 841 841 842 842 842 843 843 843 842 843 844 844 843 843 844 844 844 845 845 845 844 844 844 843 843 843 843 843
787 790 793 795 797 798 800 802 803 805 806 808 809 811 812 813 815 816 818 819 820 822 823 824 825 826 826 827 828 829 830 830 830 831 831 832 833 833 835 835 835 835 835 836 836 837 838 839 839 839 840 840 840 840 840 841 841 841 842 843 843 843 844 844 843 843 845 845 845 845 844 844 845 845 846 846 846 846 845 845 845 844 844 844 844
788 790 793 795 797 799 801 802 804 805 807 809 810 812 813 814 816 817 819 820 821 822 824 825 825 826 827 827 828 830 830 831 831 832 832 832 833 834 835 836 836 836 836 837 837 838 839 839 839 840 840 840 841 841 841 842 842 842 843 844 844 844 845 844 844 846 846 846 846 846 846 845 846 846 846 847 847 847 847 847 846 846 846 845 845
789 791 793 795 797 799 801 802 804 806 808 810 812 813 814 815 816 818 819 821 822 823 824 825 826 827 827 828 829 830 831 831 832 832 833 833 834 835 836 836 837 837 837 837 838 839 840 840 840 840 841 841 842 842 842 842 842 843 844 844 845 845 846 844 845 848 847 847 847 847 847 847 847 847 847 848 848 848 848 848 848 847 847 847 846
790 792 793 796 798 800 801 803 804 806 808 810 812 813 815 815 817 818 820 821 823 824 825 826 826 827 828 829 830 831 832 832 833 833 834 834 834 835 836 837 838 838 838 838 839 839 840 840 840 841 841 842 842 843 843 843 843 844 844 845 845 846 846 845 846 848 848 848 848 848 848 848 849 849 849 849 849 849 849 849 849 849 849 848 848
791 792 794 796 799 801 802 804 805 807 808 810 811 813 815 816 817 818 820 821 823 825 826 827 827 828 829 829 830 831 832 832 833 834 834 835 835 836 837 838 838 839 838 839 839 840 841 841 841 841 842 842 843 844 844 844 844 844 845 845 846 846 846 846 847 849 849 849 849 849 849 849 850 850 850 850 850 850 850 850 850 850 850 850 850
791 792 795 797 799 802 803 805 806 807 808 810 811 813 815 817 818 818 820 821 823 825 827 828 828 829 829 830 831 831 832 833 834 834 835 836 836 837 838 839 839 839 839 839 840 840 841 841 842 842 842 843 843 844 845 845 844 845 845 846 846 846 846 847 848 849 849 849 849 850 850 850 850 851 851 851 851 851 851 851 851 851 851 851 851
792 793 795 798 799 802 803 805 806 807 808 809 811 813 815 816 818 819 820 821 823 825 826 828 829 830 830 830 831 832 833 833 834 835 836 836 837 838 838 839 840 840 840 840 840 841 841 841 842 842 842 843 843 844 845 845 844 845 845 846 846 846 846 847 849 850 850 850 850 850 851 851 851 852 852 852 852 852 852 852 852 852 852 852 852
793 795 796 798 800 802 803 805 805 807 808 809 810 812 814 816 818 819 821 822 824 825 827 829 830 830 831 831 831 832 833 834 835 836 836 837 838 838 839 840 840 840 840 840 841 841 841 842 842 842 843 843 844 844 845 845 845 845 845 846 846 847 847 847 849 850 850 850 850 851 851 852 852 853 853 853 853 853 853 853 853 853 853 853 853
794 795 797 799 800 802 803 805 806 807 809 810 810 811 813 815 817 819 822 823 824 826 827 829 830 830 831 831 832 833 834 835 835 836 837 838 838 839 839 840 841 841 841 841 841 842 842 842 842 842 843 843 844 844 845 845 845 845 845 846 846 847 847 848 849 850 850 850 851 851 851 852 853 853 854 854 854 854 854 854 854 854 854 854 854
794 796 798 799 800 802 804 806 807 808 809 810 810 811 814 815 816 819 822 824 824 826 828 829 830 830 830 831 832 833 834 835 836 837 837 838 839 839 840 840 841 841 842 842 842 842 842 842 842 842 843 843 844 845 845 845 845 846 846 846 847 847 848 848 850 850 851 851 851 851 851 852 853 854 854 854 855 855 855 855 855 855 855 855 855
795 797 798 800 801 803 804 806 807 808 810 811 811 812 815 816 817 820 823 824 824 826 828 829 829 830 830 831 833 834 835 836 836 837 838 838 839 840 840 841 841 842 842 842 843 843 843 843 843 843 843 843 844 844 845 846 846 846 846 847 847 848 848 849 850 851 851 851 851 851 851 852 853 854 855 855 855 856 856 855 855 856 856 856 856
797 798 799 800 801 803 804 806 807 808 810 812 813 815 817 818 819 820 822 824 825 827 829 829 830 830 831 831 833 835 836 836 837 838 838 838 839 840 840 841 842 842 843 843 843 843 843 843 843 843 843 844 844 845 845 846 846 847 847 847 848 848 849 850 851 851 851 852 852 852 852 852 853 854 855 856 856 856 856 856 856 856 856 856 857
797 798 800 801 802 803 804 806 806 809 811 813 814 817 819 819 820 820 822 824 825 827 828 829 830 830 831 832 834 835 836 837 837 838 838 838 839 840 840 841 842 842 842 843 843 843 843 843 844 844 844 844 844 845 846 846 847 847 847 847 848 849 850 850 851 852 852 852 852 852 852 853 854 855 855 856 856 857 857 857 857 857 857 857 857
797 798 801 802 803 804 805 806 807 809 812 813 815 816 818 819 819 819 822 825 826 827 828 829 830 831 832 833 835 835 836 837 837 838 838 839 839 840 840 841 841 842 842 842 842 842 843 843 844 844 844 844 845 846 846 846 847 847 847 848 848 849 850 850 852 852 853 853 853 852 853 853 854 855 856 856 857 857 857 857 857 858 858 858 858
798 799 801 803 804 805 807 808 809 811 812 813 814 817 818 819 819 820 823 825 826 827 828 829 830 831 832 833 835 835 836 837 837 838 838 839 839 840 841 841 841 842 841 841 842 842 842 843 843 844 844 845 845 845 845 846 847 847 847 848 848 849 850 851 852 852 853 854 853 853 854 854 854 855 856 856 857 857 858 858 858 858 858 858 858
799 800 802 804 805 806 808 809 810 811 811 812 814 817 819 820 820 822 825 826 826 827 828 829 830 831 832 833 834 835 836 836 837 838 839 839 840 840 840 841 841 841 841 841 841 841 842 842 843 843 844 845 845 845 845 846 846 847 847 848 848 849 850 851 852 853 853 854 853 853 854 854 855 855 857 857 857 858 858 859 859 859 859 859 859
799 800 802 804 805 807 808 810 811 811 811 812 814 817 818 820 822 823 825 826 827 828 828 829 830 831 832 833 834 835 835 836 837 837 838 839 839 840 840 840 841 841 841 841 841 841 841 842 842 843 844 844 844 845 845 845 846 847 847 847 848 849 850 851 852 853 853 854 853 853 854 855 855 856 857 857 858 858 859 859 859 859 860 860 860
799 800 802 804 805 807 809 809 810 811 812 813 815 817 818 820 823 824 826 826 827 828 829 829 830 831 832 833 833 834 835 835 836 836 838 838 838 839 839 839 840 840 840 840 840 840 841 841 842 842 843 843 844 844 844 845 846 846 847 847 848 849 850 851 852 853 853 854 853 853 854 855 856 856 857 858 858 859 859 860 860 860 860 860 860
799 801 802 804 806 807 808 809 811 811 813 814 816 818 819 821 823 826 827 826 827 829 830 829 830 831 832 832 833 834 834 834 834 835 836 837 837 838 838 838 839 839 839 839 839 840 840 840 840 841 842 843 843 843 844 844 845 846 846 847 848 849 850 851 852 853 853 854 854 853 854 855 856 856 857 857 858 859 859 860 860 860 860 860 860
800 802 804 805 806 807 809 810 812 812 814 816 818 819 822 823 824 826 828 828 829 830 831 830 831 831 832 833 833 834 833 833 834 835 836 836 837 837 838 838 838 838 838 839 839 839 840 839 840 841 841 842 842 843 843 844 845 845 846 847 848 849 850 851 851 852 853 854 854 854 854 855 855 856 857 857 858 859 859 860 860 860 860 860 860
803 804 805 806 806 808 809 811 812 813 815 817 819 820 822 824 824 825 828 830 830 830 830 830 831 831 832 833 833 834 834 834 835 835 835 836 837 838 838 838 838 838 838 839 839 839 839 839 840 840 841 842 842 843 843 844 844 845 846 846 847 848 849 850 851 852 852 853 854 854 854 854 855 856 857 857 858 858 859 860 860 860 860 860 861
804 807 808 807 807 808 809 811 813 814 815 817 819 821 822 823 824 825 827 828 828 829 829 829 830 831 832 832 832 833 834 836 836 834 834 836 838 838 838 838 838 838 839 839 838 838 838 839 839 840 841 841 842 842 843 843 844 845 846 846 847 848 849 849 850 851 852 853 853 854 854 854 855 855 856 857 857 858 859 859 860 860 860 860 861
801 805 808 808 807 808 809 811 813 814 816 817 818 821 822 823 823 824 826 826 827 827 828 828 829 830 831 831 832 832 834 836 835 833 834 836 837 837 836 837 837 837 839 839 838 838 838 838 839 840 840 841 841 842 842 843 844 845 845 846 847 848 848 849 850 850 851 852 853 853 854 854 855 855 856 857 857 858 858 859 860 860 860 860 861
797 800 805 807 807 807 809 810 813 814 816 816 817 819 820 821 822 823 824 825 826 826 827 827 828 830 831 831 832 833 836 836 833 832 833 835 836 836 836 836 836 837 838 839 839 839 839 838 839 839 840 840 841 842 842 843 844 844 845 846 846 847 848 849 849 850 851 851 852 853 854 854 855 855 856 856 857 857 858 859 859 860 860 860 860
795 796 801 805 807 807 808 810 812 814 815 816 816 817 818 819 821 822 823 824 825 825 826 826 828 830 831 831 832 834 835 833 831 831 832 833 835 835 835 835 836 836 836 838 839 839 838 838 838 839 839 840 840 841 842 843 844 845 845 846 846 847 848 848 849 850 851 851 852 852 853 854 854 855 856 857 857 857 858 858 859 859 860 860 860
795 796 799 805 807 806 807 808 810 812 813 815 815 816 817 818 820 821 822 823 824 825 825 826 828 830 830 830 831 833 832 831 831 831 831 832 834 834 835 835 835 835 835 836 838 837 837 837 837 838 839 840 840 841 842 843 844 845 846 846 847 848 848 848 849 850 851 851 852 852 853 853 854 855 855 857 857 857 858 858 859 859 859 859 860
796 797 800 805 807 805 806 806 808 810 811 813 815 816 817 818 820 821 822 823 824 824 825 826 827 829 830 830 830 830 829 829 830 830 830 832 833 833 834 834 834 834 835 836 836 836 836 836 837 838 839 840 840 842 842 843 844 845 846 847 847 848 848 849 850 850 851 851 852 852 853 853 854 855 855 856 857 857 857 858 858 859 859 859 859
797 799 801 805 808 805 804 805 806 808 810 813 814 815 817 818 819 821 822 823 824 824 825 826 827 828 829 829 829 828 827 828 829 829 830 831 832 833 833 833 834 834 834 835 836 836 836 836 837 838 839 840 840 841 843 843 844 845 846 847 847 848 849 849 850 850 851 851 851 851 852 853 854 855 856 856 856 856 857 857 858 859 859 859 859
797 800 801 804 807 804 803 805 806 808 810 812 814 816 817 818 820 821 822 823 824 825 826 827 827 828 829 829 829 829 828 829 829 830 830 831 831 832 832 833 833 833 834 835 836 837 837 837 837 838 839 839 840 841 842 843 844 845 846 846 847 847 849 849 849 850 851 851 851 851 852 853 854 855 856 856 856 856 856 857 858 859 858 858 859
797 799 800 803 806 805 805 807 807 808 810 812 814 816 817 819 820 821 822 823 824 825 826 827 828 828 829 829 829 829 829 829 830 831 831 831 831 831 831 832 833 833 834 835 836 836 837 837 838 839 839 839 840 841 842 843 844 845 846 846 847 848 849 849 850 850 851 852 851 851 852 853 854 855 855 856 856 857 857 857 858 858 858 858 858
796 798 800 803 805 804 805 808 809 809 810 813 814 816 818 819 821 822 823 824 825 826 827 828 828 829 829 830 830 829 829 829 830 830 831 831 831 831 831 832 833 834 835 836 836 836 837 838 839 839 839 840 840 841 842 843 843 845 846 847 848 848 849 850 850 851 852 852 851 851 852 853 854 855 855 855 856 856 856 857 857 858 857 857 858
795 797 799 802 804 803 804 806 808 809 810 813 815 816 818 820 821 822 822 824 826 826 827 828 829 829 830 830 830 830 830 830 830 831 831 831 831 831 831 832 833 834 835 835 836 837 837 838 839 839 839 839 840 841 842 842 843 844 846 847 848 849 849 850 851 851 852 852 851 851 851 852 854 854 855 855 855 855 855 856 856 856 857 857 857
794 796 798 801 802 803 805 805 807 809 810 812 814 816 818 819 820 821 822 824 825 826 827 828 829 829 830 831 831 831 831 831 831 831 832 832 831 831 831 832 833 833 835 835 836 836 837 838 839 839 839 839 840 840 841 842 842 843 843 844 846 848 849 850 851 851 851 852 851 851 852 852 853 854 855 855 855 856 856 856 856 856 856 857 858
793 796 797 800 802 803 804 805 806 808 810 812 814 816 817 819 820 821 822 824 825 826 827 828 829 830 830 831 832 832 832 832 832 832 832 832 833 832 832 832 833 834 835 835 836 836 837 838 838 839 839 839 839 840 841 841 841 841 842 843 843 845 848 848 850 852 851 852 852 851 852 852 853 854 854 855 856 856 856 856 856 856 857 857 857
793 795 796 798 800 801 802 803 805 807 810 812 814 816 817 819 820 821 823 824 825 826 827 829 829 830 831 831 832 832 832 833 833 833 833 833 833 833 833 834 834 834 835 835 836 836 837 837 838 838 838 838 839 840 841 841 841 841 841 842 841 844 849 847 847 851 851 851 852 851 852 852 853 854 854 855 856 856 856 856 856 857 857 857 858
792 794 795 796 798 800 801 802 804 807 809 811 813 815 817 818 820 821 823 824 825 826 827 828 829 830 831 831 832 832 833 833 833 834 834 833 834 833 833 834 834 834 835 835 836 836 836 837 837 838 838 838 839 839 840 841 841 841 840 841 841 845 848 846 846 850 851 851 851 852 853 853 853 854 854 855 856 856 856 857 857 857 857 858 858
791 793 794 795 797 799 800 802 804 806 808 811 813 815 816 818 819 821 822 823 825 826 826 827 828 829 830 831 832 832 833 833 834 834 834 834 834 834 834 834 834 834 834 835 835 836 836 837 837 838 838 838 839 839 840 840 841 841 841 842 844 845 845 844 844 848 851 852 852 852 853 854 854 854 855 856 856 857 857 857 857 858 858 858 858
790 792 793 794 796 798 799 801 803 805 807 810 812 814 815 817 819 820 821 822 823 824 826 827 828 829 830 831 832 833 833 834 834 834 834 834 834 834 834 834 834 834 834 834 835 835 836 836 837 837 837 838 838 838 839 840 841 841 842 843 844 844 844 843 842 845 849 851 853 854 855 855 855 855 856 857 857 858 858 858 858 858 859 859 859
789 791 792 792 794 796 798 800 802 804 806 809 811 813 815 817 819 820 821 822 823 825 826 827 829 830 830 832 832 833 834 834 834 835 835 835 835 835 835 835 835 835 834 834 835 835 836 836 837 837 837 837 838 838 838 840 840 841 842 843 843 843 844 843 842 842 845 849 853 855 856 857 857 857 858 858 859 859 859 859 859 859 860 860 860
787 789 790 791 793 795 797 798 800 803 805 808 810 812 814 816 818 820 821 822 824 825 827 828 829 829 830 831 832 833 834 835 835 835 835 835 835 835 835 835 835 835 835 835 835 835 836 836 837 837 838 838 838 838 838 839 839 840 842 843 843 843 843 844 844 843 843 847 851 854 857 859 858 858 859 859 860 861 861 861 861 861 861 861 861
786 788 790 791 793 795 797 798 800 802 805 807 810 811 814 816 818 819 821 823 824 826 827 828 829 829 830 831 832 833 834 835 835 835 836 836 836 836 836 836 836 836 836 836 836 836 836 837 837 837 838 838 838 838 838 839 840 840 841 842 842 842 843 844 844 844 843 845 849 852 855 857 857 859 860 861 861 861 862 862 862 862 862 862 862
786 789 791 793 795 796 798 799 801 803 805 807 809 811 813 816 817 819 821 822 824 826 827 828 829 829 829 830 831 832 833 834 835 835 836 836 836 836 836 836 836 837 837 837 837 837 837 837 837 837 838 839 839 839 839 840 840 841 841 841 842 842 842 843 844 844 844 845 847 850 852 854 856 859 861 862 862 862 862 863 863 863 863 863 863
Wind_Speed
21 23 25 26 24 23 22 22 22 22 22 22 24 24 24 24 24 24 23 24 25 25 24 23 21 20 18 18 17 16 15 15 16 17 17 16 16 16 16 15 15 15 15 15 14 15 14 13 13 13 12 12 12 12 12 12 13 13 12 11 10 11 12 12 13 13 14 14 14 14 13 13 13 13 12 13 12 12 11 11 11 12 11 11 12
24 23 25 27 25 24 23 23 23 23 22 23 24 25 25 24 24 24 24 24 25 25 24 21 20 18 17 17 16 16 15 15 15 16 17 17 17 16 15 15 15 15 15 14 14 14 15 13 12 12 11 12 12 11 10 11 14 14 12 11 10 10 11 12 11 11 12 12 13 13 13 13 13 13 13 12 12 13 12 12 12 13 13 13 13
26 23 25 27 26 25 24 24 24 24 23 23 24 25 25 25 25 25 25 25 25 24 21 20 19 18 17 17 16 15 15 14 14 15 16 18 18 16 15 14 14 14 15 14 13 13 14 13 12 12 11 12 11 10 9 11 15 14 12 12 12 11 11 11 11 11 12 12 12 13 14 13 12 12 12 12 12 12 12 12 13 14 15 14 14
26 24 25 28 27 26 25 25 25 24 24 24 25 26 25 25 26 25 25 25 24 21 20 19 19 18 18 17 16 16 15 15 15 15 15 17 19 17 15 15 13 13 14 14 13 12 13 13 12 12 12 12 11 10 10 11 14 13 10 11 12 12 11 11 12 12 12 12 13 13 12 12 12 12 12 12 12 12 12 11 13 15 15 15 14
26 25 26 27 27 27 26 26 26 25 25 25 25 26 26 26 25 24 24 23 22 21 20 20 19 19 19 18 17 17 16 15 15 15 15 17 19 18 17 16 14 13 13 13 13 13 13 13 12 12 12 11 10 11 11 11 13 12 10 10 11 11 10 10 12 13 13 12 11 10 10 11 11 11 11 11 12 13 13 12 14 16 15 14 14
25 25 26 25 25 27 27 27 26 26 25 25 25 26 26 25 24 23 22 21 21 21 20 20 20 20 19 18 17 16 15 14 14 13 14 16 18 18 17 16 15 15 14 13 13 13 13 13 13 12 11 11 11 11 11 12 12 11 10 10 10 9 9 10 11 13 14 13 11 9 9 10 10 11 11 11 12 13 12 12 14 14 13 13 13
25 25 25 23 24 28 28 27 27 26 26 25 24 24 25 25 24 23 22 21 21 21 20 21 20 20 19 17 16 15 14 13 13 14 14 16 17 16 16 16 16 15 15 14 13 13 13 13 13 12 11 11 11 11 12 12 12 11 10 10 10 9 9 10 11 11 11 10 8 7 8 9 9 10 10 10 11 11 12 11 12 12 12 12 12
24 24 24 23 23 28 29 28 27 26 26 25 24 24 24 25 25 24 23 22 22 21 21 21 20 19 18 17 16 15 14 14 14 15 15 16 16 16 15 15 15 15 15 14 13 13 13 13 12 12 12 11 11 11 12 12 12 11 10 10 10 10 11 11 12 11 11 8 6 7 8 8 9 10 10 10 10 10 11 11 11 12 12 11 11
24 24 23 22 24 29 29 28 27 26 26 25 24 24 24 25 25 25 24 23 23 22 21 20 19 18 17 16 15 14 13 13 13 14 15 15 16 16 16 15 15 14 14 14 14 13 13 12 12 12 11 11 12 12 12 12 12 10 10 10 10 10 10 10 11 10 9 7 7 7 8 8 8 9 9 8 9 9 8 9 11 12 12 11 11
23 23 22 22 25 29 28 27 27 26 26 25 25 25 24 24 25 24 23 23 23 22 20 18 18 16 16 16 14 13 12 12 12 14 15 15 15 16 16 15 14 13 14 14 13 13 13 12 12 12 11 12 13 13 12 12 11 9 9 9 9 9 9 10 11 10 7 6 8 7 8 9 9 9 9 9 9 8 6 8 10 10 12 12 11
22 23 22 23 27 28 27 27 26 26 25 25 25 24 24 24 24 23 22 22 21 20 19 18 17 16 15 14 13 12 12 12 12 13 14 14 14 15 15 13 12 12 13 13 13 12 12 12 13 12 12 12 13 13 11 10 8 8 8 8 8 8 8 9 8 7 6 7 8 8 8 9 9 9 9 9 9 8 8 9 9 9 11 12 11
21 22 22 24 28 28 27 26 26 26 25 24 24 23 23 23 23 22 21 20 19 19 18 17 16 15 14 14 13 12 12 12 12 12 13 13 14 15 15 13 12 12 12 12 12 12 12 12 12 12 12 11 12 12 8 7 6 6 6 5 5 5 7 8 6 4 6 6 7 7 7 8 9 9 10 9 9 8 9 9 8 8 10 12 12
21 21 22 26 28 28 28 27 26 26 25 25 24 23 22 22 22 21 20 19 18 17 17 16 16 15 14 14 13 12 12 11 11 11 11 13 14 14 14 13 12 11 11 10 11 12 11 11 11 10 11 11 10 9 7 6 7 6 4 3 2 1 4 8 6 3 5 6 6 7 7 8 8 9 10 9 8 8 8 8 7 7 9 11 12
20 21 23 25 26 27 27 26 26 25 25 25 24 23 22 22 21 21 20 19 17 16 15 15 14 14 14 14 13 12 11 11 10 10 10 11 12 13 12 12 11 11 10 9 10 11 10 10 10 9 9 10 8 7 6 6 6 5 3 2 2 2 4 7 5 4 5 6 6 6 7 8 8 9 9 8 8 8 8 7 8 8 9 10 11
19 22 23 24 25 24 25 26 25 25 25 24 24 22 21 21 20 20 19 18 17 15 14 13 13 13 13 13 13 12 11 11 10 10 10 10 10 11 10 10 10 9 9 10 9 10 10 10 10 9 9 9 8 7 6 5 4 4 3 2 2 3 6 5 3 4 4 5 6 6 7 8 9 8 8 8 6 6 6 7 8 8 8 9 10
19 21 22 23 25 23 23 24 24 25 24 24 23 22 21 20 19 19 18 18 16 15 13 12 12 12 12 12 12 12 12 11 10 10 9 9 9 10 10 10 9 8 9 9 8 9 9 10 10 9 9 10 9 8 6 5 3 2 3 2 2 5 9 7 3 4 4 5 6 6 7 8 10 8 7 7 5 6 7 7 7 7 7 7 8
19 20 21 22 24 23 22 23 24 23 23 23 23 23 21 20 19 18 17 17 16 14 13 12 11 12 12 12 12 12 12 11 10 10 10 9 9 9 9 9 8 8 8 8 8 8 9 9 8 8 8 9 10 9 7 6 4 2 2 2 4 6 9 9 5 4 4 5 5 6 7 6 8 7 7 7 6 7 7 7 6 7 7 6 7
18 19 21 23 23 22 22 22 22 21 22 22 22 23 21 20 18 17 16 15 15 14 12 12 12 13 13 12 12 11 12 12 11 10 9 9 8 9 9 9 9 8 9 9 10 9 9 8 7 6 6 6 8 8 8 7 5 2 1 3 6 7 9 9 5 4 5 5 5 7 5 5 7 7 6 6 6 6 7 7 7 6 6 7 8
17 16 19 23 21 20 20 20 19 19 19 19 20 21 19 19 18 16 15 15 15 13 13 13 13 13 13 12 12 11 11 11 11 10 9 9 8 8 9 9 9 9 9 10 10 10 9 8 7 6 5 5 6 7 8 7 5 3 2 5 8 8 8 7 5 4 5 4 5 6 3 6 8 7 6 6 6 6 7 6 6 6 6 7 7
15 15 16 19 19 18 19 18 17 17 17 16 18 19 18 18 17 16 15 15 15 14 14 14 13 13 12 12 11 11 11 11 10 10 10 10 9 9 9 9 9 9 9 10 10 9 8 8 7 6 6 5 6 7 9 8 6 4 3 6 9 8 6 5 4 4 5 5 6 4 4 8 9 6 6 6 6 6 6 5 5 5 5 5 5
14 14 14 14 15 15 17 16 16 16 16 16 17 16 17 17 17 16 15 15 15 14 14 13 13 12 11 12 11 10 10 10 10 10 10 10 10 10 9 9 9 9 9 9 8 8 7 7 6 6 6 6 6 7 9 9 7 5 4 8 10 7 5 5 4 4 4 5 6 3 5 10 8 6 6 6 6 5 5 5 5 5 5 4 5
14 14 13 13 13 13 15 15 14 15 16 17 16 15 15 16 16 16 14 15 15 15 14 12 12 11 11 11 10 9 9 9 9 9 9 9 10 10 9 9 9 8 8 8 7 7 7 6 6 6 6 6 7 5 7 8 8 7 5 9 10 7 6 5 4 3 3 5 4 2 6 11 8 6 6 6 5 5 5 5 5 4 4 3 4
14 13 13 12 12 12 13 13 13 15 14 13 14 15 15 16 15 15 15 15 15 14 13 12 11 10 10 9 8 8 8 8 8 9 9 9 9 9 9 9 9 8 7 7 7 7 7 6 6 6 6 6 5 4 6 6 7 7 6 9 10 7 7 6 4 3 3 5 3 2 7 10 8 6 5 6 5 4 4 5 5 4 3 3 3
13 13 13 12 11 12 11 11 12 13 13 12 13 14 16 16 15 15 15 15 14 14 12 11 10 9 9 8 8 8 8 8 8 9 9 8 8 8 8 8 9 8 7 7 7 7 7 7 7 6 5 4 3 4 5 5 6 7 6 8 9 7 8 6 4 3 4 5 2 2 7 9 8 6 5 5 5 5 4 3 4 3 2 3 3
13 12 13 12 11 11 11 11 12 13 15 14 12 12 14 13 13 14 13 13 13 12 11 10 9 9 8 7 8 8 8 8 8 8 7 7 7 7 6 7 7 8 7 6 6 7 7 8 7 6 5 4 4 4 4 4 5 5 6 7 8 8 7 5 4 3 5 5 2 3 6 7 8 6 5 5 4 5 4 3 4 3 1 2 4
12 12 13 12 12 11 11 12 12 13 14 13 12 12 13 11 11 11 11 11 11 10 10 9 9 9 8 7 8 8 7 7 8 7 6 6 7 6 6 6 7 7 7 6 7 7 7 7 6 6 5 5 5 4 4 4 4 4 5 6 8 8 6 5 5 3 5 5 3 4 5 6 7 6 4 5 4 4 5 3 3 3 1 2 3
13 12 13 13 12 11 12 13 14 13 12 12 13 14 15 14 12 9 8 10 10 9 9 8 8 8 7 7 8 8 7 8 8 8 7 7 7 7 7 7 7 7 7 7 7 7 7 7 6 6 6 6 6 6 6 5 5 5 5 6 7 7 5 4 4 4 5 5 4 5 5 6 6 6 4 4 4 4 4 4 3 2 2 2 2
13 12 12 12 12 12 12 13 15 14 13 12 14 14 14 14 13 9 7 9 10 9 8 8 8 7 7 7 7 8 8 9 10 9 7 7 7 7 7 7 7 7 7 7 7 8 7 8 8 8 8 7 7 6 6 6 6 6 6 7 7 6 6 5 4 4 4 5 5 5 6 6 6 6 5 5 4 4 4 4 3 3 2 2 2
12 12 11 12 13 13 12 12 14 14 14 12 12 12 11 14 15 13 9 9 10 9 7 7 7 7 7 7 6 7 8 9 9 8 7 7 6 6 5 6 7 7 7 7 7 7 7 8 9 9 8 7 7 6 7 7 7 6 6 7 7 7 6 6 5 5 4 5 5 4 5 7 7 7 6 5 4 4 4 3 3 3 3 1 0
10 11 11 12 12 13 13 12 13 12 12 12 12 11 11 13 14 13 11 10 10 9 7 6 6 6 5 6 6 6 7 7 5 5 6 6 5 5 4 5 6 7 7 7 6 7 7 8 8 8 8 7 6 6 7 7 7 7 7 7 7 7 7 6 5 5 4 5 5 4 5 7 8 7 7 6 5 4 4 4 4 3 3 2 2
7 7 8 11 12 13 13 13 12 11 11 11 12 12 11 11 11 11 11 9 8 7 6 6 5 4 3 4 6 7 6 4 4 5 7 7 5 5 6 7 7 6 6 5 5 7 6 6 8 8 8 7 7 6 6 7 7 7 7 7 7 7 7 6 6 5 5 5 6 5 5 5 7 8 7 6 5 5 4 5 4 3 2 2 3
13 11 9 10 12 12 13 13 12 12 11 10 11 12 11 11 10 10 8 7 6 5 5 5 3 3 4 4 6 7 4 2 6 8 8 7 6 7 8 9 9 8 7 5 6 7 7 6 8 8 7 7 7 6 6 6 6 6 6 7 7 7 6 6 6 6 6 5 6 6 5 4 6 7 7 7 6 5 5 5 5 4 3 2 3
20 19 14 12 12 13 13 13 13 13 12 10 10 10 10 10 9 8 6 6 5 3 3 4 3 3 6 6 6 4 1 3 9 11 9 7 7 7 7 9 9 8 7 7 7 8 7 7 8 8 7 7 6 6 6 5 5 5 5 7 7 6 5 6 6 6 6 6 5 6 5 5 5 5 6 6 6 6 5 5 5 5 3 3 4
20 21 18 16 15 15 14 14 14 14 14 12 9 8 8 7 7 6 5 5 4 3 3 4 2 2 6 7 6 3 3 9 12 12 11 9 8 7 7 8 8 6 5 7 8 9 8 7 7 8 7 6 6 7 6 5 4 4 4 4 5 4 4 5 6 6 5 5 5 5 4 4 4 4 4 5 5 5 5 4 5 5 4 3 3
19 20 20 17 17 16 15 15 15 15 15 12 9 7 6 5 5 5 5 4 3 4 3 3 2 1 2 4 3 2 5 10 9 7 7 7 7 6 6 7 6 5 4 5 8 8 8 7 6 7 7 6 6 6 6 6 5 4 3 3 3 3 4 4 5 5 4 4 4 4 2 2 3 3 4 5 4 4 4 3 3 3 3 3 3
17 17 17 17 18 17 16 15 15 15 14 11 9 7 5 4 4 5 5 4 3 3 2 1 2 1 2 1 1 1 2 5 4 4 5 5 5 5 4 5 5 4 2 2 5 5 6 6 5 5 6 6 5 6 5 6 5 4 3 2 2 2 3 3 4 4 3 2 2 3 3 2 2 2 2 3 3 2 2 1 2 2 2 2 2
15 14 14 17 19 18 17 15 15 15 12 11 8 6 5 4 4 4 4 4 3 2 2 1 2 2 2 3 3 1 3 2 2 3 3 4 4 3 3 4 4 3 2 2 2 3 4 5 5 4 5 5 6 6 5 5 5 4 3 2 1 2 1 1 2 2 1 1 2 3 4 2 1 1 1 1 2 1 0 1 1 1 1 2 2
14 13 13 17 19 17 16 14 14 14 11 10 8 6 5 4 4 4 4 4 3 2 2 2 2 2 2 2 3 2 2 2 2 2 3 3 3 4 4 3 3 3 2 2 2 2 3 4 5 5 5 5 6 6 6 6 6 5 4 3 3 3 1 1 1 0 2 1 2 2 2 1 1 1 1 1 1 1 1 2 2 2 1 2 3
13 14 15 17 17 13 12 12 12 13 11 10 9 7 6 5 5 4 3 3 3 2 2 2 2 2 2 2 2 2 2 2 2 3 3 3 3 5 5 4 3 3 2 2 2 2 3 3 4 5 5 6 5 5 6 6 6 6 5 4 3 2 0 1 0 1 1 1 4 4 2 3 3 2 2 2 1 1 1 2 2 1 1 3 4
14 15 15 15 13 11 11 12 11 12 11 10 9 7 7 6 5 5 5 4 3 3 3 3 2 2 3 3 3 2 1 1 1 2 3 4 4 4 4 4 3 2 3 3 3 3 3 4 4 5 5 6 5 5 7 7 7 6 6 4 3 2 1 1 1 1 1 1 3 2 1 2 1 1 1 1 1 1 1 1 1 0 2 4 5
14 14 14 14 13 12 13 13 12 12 11 11 10 8 8 8 7 7 6 6 5 5 5 4 4 4 4 3 3 3 2 1 1 2 3 3 3 2 2 3 3 3 3 4 3 3 4 4 4 5 6 6 6 6 7 8 8 7 6 6 4 3 2 2 2 2 2 2 1 1 1 2 2 1 1 1 1 2 2 2 3 2 2 2 4
13 12 13 14 14 13 13 14 13 12 12 11 11 10 9 8 7 7 7 7 6 6 6 6 6 5 5 4 3 4 3 3 3 3 4 3 2 2 2 2 2 3 3 3 4 4 4 5 5 6 7 7 6 6 8 8 8 8 7 7 6 5 4 4 3 3 3 3 2 2 2 2 3 2 2 2 3 3 3 4 4 4 4 2 2
14 13 13 15 15 14 15 14 12 13 12 12 12 11 9 8 7 8 8 7 7 6 7 7 6 6 6 4 4 4 4 4 4 4 4 3 2 2 2 2 2 3 3 4 4 4 5 6 6 6 7 7 6 6 9 9 7 7 7 5 5 5 5 5 5 4 3 4 3 3 3 3 3 3 3 3 4 4 4 5 5 5 5 4 3
15 15 15 17 17 16 17 15 13 14 13 13 12 11 10 9 8 10 9 8 8 8 8 8 7 6 6 4 3 4 4 4 4 4 3 3 2 2 2 2 3 4 4 4 5 5 5 6 6 7 7 7 6 7 8 7 5 5 5 3 4 4 3 5 7 5 4 5 5 4 4 4 4 4 4 4 4 5 5 6 6 6 5 5 4
15 16 17 17 16 16 17 15 15 15 14 14 13 12 12 11 10 11 10 9 9 8 8 7 7 6 5 4 3 3 3 3 3 3 3 3 2 1 1 1 2 3 3 4 4 5 5 6 6 7 8 7 6 7 8 7 6 6 4 2 3 3 2 7 8 5 5 5 5 5 5 4 4 4 5 5 5 6 6 6 7 6 6 6 5
15 16 17 17 16 16 17 17 16 16 15 16 15 14 14 13 13 12 11 10 9 7 7 7 7 6 5 5 4 3 3 3 3 3 3 3 3 2 1 1 1 2 3 3 4 5 6 6 7 7 8 8 7 7 7 7 6 7 6 3 2 2 2 8 7 4 6 7 6 6 6 6 6 6 7 7 7 7 7 7 8 8 8 7 7
16 16 17 18 17 16 17 18 17 16 15 16 16 14 13 13 13 11 10 9 9 8 7 7 7 6 6 5 5 4 3 4 3 3 3 4 4 4 3 2 1 1 2 3 4 5 6 6 6 7 7 7 8 8 7 6 6 7 7 5 3 3 3 6 5 4 6 6 6 7 7 8 9 9 9 9 8 8 8 8 9 9 10 10 10
16 16 16 17 17 16 17 18 17 16 16 16 16 14 13 13 12 10 9 9 9 9 8 8 7 7 7 7 6 5 4 4 3 3 3 4 4 3 3 3 2 2 2 2 3 3 4 5 6 6 6 7 9 9 8 7 6 6 6 6 5 4 5 6 5 5 6 5 6 7 8 10 10 11 10 10 10 10 9 9 9 10 10 11 11
14 15 15 14 15 15 15 15 15 15 16 16 16 14 12 13 11 10 10 9 9 9 9 8 8 8 8 7 6 6 4 3 3 3 3 3 3 3 2 3 3 2 3 2 3 3 4 4 5 6 6 6 7 8 8 8 6 6 7 7 6 6 6 5 5 5 6 6 6 7 8 8 9 10 10 10 10 10 10 10 10 10 10 11 11
11 11 11 11 13 14 14 14 14 14 15 15 14 14 13 12 10 10 11 11 11 10 9 9 8 9 9 8 7 6 5 3 3 3 3 3 3 3 2 3 4 4 4 4 4 4 3 4 4 5 6 7 6 6 7 7 6 7 7 7 7 7 7 7 7 7 7 7 6 8 9 8 8 9 8 9 9 9 9 9 9 10 10 10 11
9 9 8 10 11 12 13 13 13 13 15 15 14 14 14 11 10 10 11 12 12 11 10 9 9 9 10 9 7 5 5 4 3 4 4 3 4 3 3 4 5 5 4 4 4 3 3 3 4 5 5 6 6 6 7 7 6 7 6 6 6 6 6 7 8 8 7 6 6 7 9 9 9 9 8 8 8 8 9 9 9 9 9 9 10
Wind_Direction
148 145 147 157 154 153 152 150 148 147 147 146 149 150 152 153 153 153 151 149 148 145 144 144 142 141 139 140 141 140 140 140 142 141 138 134 134 133 132 134 134 135 136 133 127 122 117 116 117 115 115 113 111 112 110 111 114 107 105 109 109 108 107 104 99 97 97 97 94 96 96 93 90 87 86 82 77 70 64 65 66 60 61 68 68
147 145 148 156 153 153 150 149 148 146 146 144 148 149 150 149 150 150 147 145 145 145 145 143 140 140 138 140 142 141 142 142 144 143 142 137 134 133 134 134 135 135 135 135 130 128 124 121 120 117 115 114 114 113 113 121 123 115 108 110 109 104 105 107 105 107 105 101 99 98 95 93 90 87 87 81 75 70 67 70 69 62 66 74 72
143 145 147 154 153 152 150 149 147 146 145 144 147 147 147 146 148 147 143 143 144 145 144 142 140 140 141 142 141 140 139 140 142 142 143 138 135 134 135 133 136 136 133 134 134 135 128 125 124 121 118 117 116 113 115 128 130 119 109 113 113 103 102 105 104 109 106 100 99 98 93 90 87 86 87 80 76 72 71 75 72 69 76 79 73
143 143 146 153 153 152 151 148 147 145 144 145 146 145 146 145 146 146 144 145 144 145 143 144 144 144 143 142 141 138 136 135 136 137 138 139 138 136 136 133 136 136 133 134 134 135 130 128 128 126 125 123 121 117 118 129 137 125 111 120 122 115 114 116 112 112 107 98 93 91 92 89 84 85 85 80 78 73 71 73 70 73 80 81 78
142 140 146 150 153 154 151 148 147 146 144 144 146 146 148 149 150 150 151 151 149 147 148 150 148 146 144 144 144 141 139 135 132 130 132 137 141 140 138 137 138 137 136 137 134 134 133 133 132 130 130 131 127 125 125 129 139 128 114 127 131 128 126 127 122 114 107 100 93 91 95 94 89 86 85 80 77 73 70 72 73 76 80 79 81
140 140 143 147 152 155 152 150 148 146 146 145 145 148 149 151 153 155 156 156 156 154 153 151 147 146 145 147 146 145 142 137 134 129 128 134 139 140 140 141 142 141 140 140 139 138 137 138 137 136 135 136 132 130 130 128 135 128 119 129 132 133 132 130 120 108 97 87 87 95 96 93 93 88 84 80 78 76 70 72 75 76 78 78 82
140 141 144 148 151 155 154 150 148 147 147 146 146 147 149 151 152 153 154 154 155 153 151 149 148 148 148 148 146 145 143 142 143 140 135 134 136 138 140 142 144 143 142 142 142 141 141 142 140 140 139 138 136 133 131 128 134 130 122 126 128 130 133 127 110 96 85 74 80 92 92 92 95 91 86 81 80 80 75 74 71 72 78 78 80
142 142 146 150 152 156 155 151 149 147 147 146 147 147 149 150 151 152 151 151 150 150 149 149 149 149 149 147 146 147 147 149 149 146 143 138 138 137 137 138 140 141 141 143 145 144 143 143 144 142 141 143 139 134 131 132 136 128 121 124 127 132 134 121 100 82 73 72 84 87 86 90 95 95 91 87 84 81 78 69 57 63 77 77 78
147 145 148 148 153 156 154 153 150 148 147 147 147 148 150 151 152 152 150 150 149 150 149 149 150 149 148 146 146 146 149 153 149 146 143 143 143 140 140 137 134 135 138 142 142 143 144 145 147 145 146 147 140 135 134 135 134 123 122 128 130 135 135 114 88 73 70 77 84 82 87 91 95 98 94 93 86 79 79 71 60 63 75 77 79
151 147 147 147 153 155 153 153 150 149 148 147 148 149 151 151 151 151 150 149 150 150 150 149 149 148 146 143 144 146 149 149 144 144 143 144 146 143 142 139 133 130 131 136 138 141 144 144 147 150 149 148 145 142 138 134 128 122 124 127 130 133 128 102 75 63 69 81 74 77 94 94 92 97 98 93 85 84 91 88 78 68 72 77 79
153 149 145 147 153 155 153 152 151 150 150 149 149 150 151 151 152 151 150 150 151 150 151 150 149 148 145 142 143 145 146 143 141 144 143 140 143 143 139 138 133 125 125 130 136 139 141 146 150 151 147 150 154 149 139 132 127 126 124 121 124 124 117 97 74 62 70 78 73 80 90 85 86 98 103 94 87 85 83 82 80 70 68 74 78
154 151 145 148 155 156 154 153 152 152 151 151 151 151 152 152 152 152 151 152 153 153 154 152 150 149 145 142 141 143 143 141 142 142 141 140 141 142 139 134 127 121 123 127 133 137 142 150 151 150 149 155 161 157 148 139 142 138 129 124 117 118 113 90 71 74 75 75 78 84 81 79 87 98 102 96 90 85 84 83 76 65 67 74 77
155 152 145 148 155 156 155 155 153 153 153 153 154 154 154 154 153 153 154 154 155 157 156 154 152 150 147 144 141 142 142 141 141 137 136 143 142 136 133 126 120 119 122 127 132 138 144 149 145 146 150 155 163 167 165 156 155 152 145 143 133 168 124 94 82 91 79 77 80 80 81 87 94 100 103 99 91 87 89 85 67 58 68 77 78
155 150 143 146 153 155 156 156 154 155 156 156 156 157 157 156 155 155 156 156 156 156 156 154 152 150 148 146 143 143 143 142 140 137 138 142 137 128 128 126 122 121 123 128 132 137 142 147 144 142 149 155 167 167 161 157 154 151 144 144 165 207 140 104 96 105 85 80 82 79 85 94 102 103 105 102 96 92 87 76 71 66 66 78 80
153 147 141 144 151 154 156 155 154 156 157 158 156 156 157 157 157 157 155 155 155 155 155 154 153 153 152 150 147 146 143 143 141 141 142 139 136 131 134 132 126 123 126 130 135 140 143 151 149 146 155 160 170 163 156 164 154 141 126 128 178 174 142 127 107 108 96 87 85 82 88 101 109 103 102 108 104 96 86 74 78 74 64 76 82
149 145 140 144 151 154 158 156 157 159 159 158 156 155 156 158 160 159 156 155 155 154 155 155 157 154 150 147 143 143 142 144 143 144 145 141 142 139 138 134 127 126 130 135 143 151 154 161 158 157 167 169 173 169 168 179 168 133 114 127 177 159 135 129 128 114 99 94 91 88 92 104 111 105 104 111 98 88 94 87 83 81 73 68 75
145 142 139 146 153 155 159 161 161 161 160 158 156 156 156 159 159 158 156 154 152 152 156 158 155 146 140 137 135 139 142 147 146 144 146 143 141 137 136 131 126 129 133 137 144 149 153 160 164 167 173 178 181 179 175 175 180 150 113 140 161 161 132 115 119 122 102 99 96 92 97 113 119 112 113 114 99 92 100 98 85 83 83 60 60
150 146 143 150 158 162 162 162 162 161 161 159 159 160 159 159 157 156 155 153 151 151 155 153 145 138 134 133 133 136 141 147 145 144 145 140 135 130 129 126 125 130 132 138 143 143 142 144 148 155 167 182 184 182 177 170 176 173 150 157 155 158 133 113 118 125 112 107 102 96 102 136 127 115 115 115 107 101 99 97 91 85 78 65 63
156 152 150 154 159 166 167 165 162 161 162 163 164 164 164 162 155 153 155 154 152 151 153 149 142 138 135 134 135 136 140 147 146 145 144 138 134 133 130 128 128 130 132 140 146 145 143 137 127 126 140 164 177 178 175 167 169 179 175 165 158 153 133 115 123 127 117 110 107 102 110 135 124 116 116 111 109 105 102 100 97 85 65 68 70
155 154 155 157 161 165 168 169 169 168 165 168 171 167 165 160 151 150 154 157 155 154 153 148 142 138 136 136 135 133 137 142 142 143 143 141 139 139 137 136 135 133 134 140 145 146 145 139 128 120 119 137 160 169 169 163 166 185 187 174 162 151 139 122 124 125 116 105 107 112 125 126 120 118 119 113 110 106 106 106 97 83 67 62 57
151 155 156 155 159 162 163 166 171 172 168 172 172 166 163 155 149 149 154 161 159 155 154 148 142 141 142 140 134 135 140 140 142 143 142 144 141 139 139 140 140 139 140 142 144 144 144 144 138 127 118 124 139 155 164 160 164 185 193 179 167 156 153 138 126 122 113 108 110 114 125 123 121 124 124 118 115 113 109 107 97 87 83 59 37
151 156 157 154 155 158 159 162 167 169 167 171 170 166 163 153 150 151 157 164 158 154 155 148 145 149 149 145 142 145 148 148 151 148 143 146 142 137 139 141 144 147 146 148 150 148 146 147 144 136 126 119 118 138 164 161 164 178 194 182 174 168 157 142 128 124 107 108 108 95 126 126 124 129 128 123 122 116 108 112 104 93 89 63 33
156 157 158 158 156 159 162 163 164 164 164 168 168 164 161 158 159 159 163 166 158 155 156 152 152 154 153 150 151 153 152 154 158 153 149 149 143 139 141 142 147 151 154 159 161 160 157 150 147 142 122 110 117 147 170 170 170 174 190 187 181 174 157 146 135 127 97 99 90 84 130 130 125 133 136 128 130 120 111 118 111 97 82 59 34
154 156 159 158 158 162 161 159 158 162 169 169 162 157 159 164 169 168 169 166 158 157 157 155 158 158 157 156 155 155 153 153 157 156 152 150 146 145 144 146 151 155 159 165 171 173 170 157 145 138 123 113 136 165 173 178 181 182 191 187 182 170 157 151 144 133 104 101 81 100 134 135 133 139 144 135 132 127 123 125 110 98 81 58 36
152 158 161 159 161 163 154 151 152 165 178 170 155 153 158 162 172 175 173 167 158 157 159 158 162 161 160 161 160 158 155 152 156 156 153 154 153 154 155 155 159 161 162 169 179 180 175 165 152 142 141 140 145 159 173 182 186 189 189 180 175 167 162 157 148 134 110 105 81 108 134 145 142 136 146 145 132 130 131 130 119 106 83 38 25
153 164 164 159 161 161 150 148 150 165 179 166 149 159 166 163 174 176 173 167 153 155 163 162 166 165 163 165 163 161 160 159 160 161 162 165 165 168 172 169 170 171 172 180 183 183 180 172 161 151 150 148 147 158 174 184 184 188 185 174 168 166 169 159 146 135 113 108 87 95 124 147 146 133 143 154 139 136 134 130 125 100 63 23 12
161 167 161 156 160 159 153 153 154 163 174 163 152 168 177 170 170 171 171 170 160 166 173 169 169 170 170 168 168 168 172 172 168 168 170 175 179 180 180 176 180 182 184 187 183 183 180 170 162 157 157 156 154 162 173 179 177 179 178 171 165 164 168 158 146 132 116 115 95 86 112 140 147 135 141 156 149 147 138 133 134 94 54 47 51
161 161 155 155 163 162 159 160 158 162 171 164 155 165 173 166 168 174 183 182 178 182 182 177 172 174 178 173 175 178 183 188 180 172 174 185 188 185 184 183 186 189 191 189 182 179 175 169 167 165 162 159 158 162 169 176 174 169 165 165 165 164 163 157 150 138 122 123 112 87 103 131 143 139 143 150 150 156 150 140 143 136 101 58 60
158 157 156 161 167 164 163 161 158 165 169 157 151 161 161 159 168 177 188 194 191 189 185 182 176 181 186 181 187 190 197 204 191 175 180 195 194 191 194 193 197 199 195 193 186 178 174 171 168 167 162 156 157 162 168 172 172 165 159 159 164 165 161 159 156 148 133 128 128 104 108 128 135 138 142 139 138 150 161 155 150 152 135 116 64
153 156 165 168 170 167 165 162 162 169 167 152 152 171 173 167 169 174 187 195 192 187 184 185 184 186 186 190 199 198 206 213 198 180 195 212 206 201 210 218 218 212 204 198 189 181 174 171 169 165 161 156 154 160 170 170 168 166 161 157 160 164 162 163 162 154 142 132 134 126 117 125 129 133 136 134 135 136 152 163 159 157 143 135 147
141 162 184 177 173 172 168 165 164 165 169 161 157 170 181 182 175 176 188 189 184 179 181 191 191 186 179 195 204 202 207 210 211 209 207 215 220 213 213 227 230 220 223 214 184 180 169 165 169 163 159 158 152 156 168 169 166 167 166 164 165 168 167 169 167 160 153 142 139 137 126 121 125 130 130 134 141 132 133 153 156 154 158 146 145
156 181 203 193 180 177 173 167 164 162 170 173 164 168 176 182 179 178 182 175 175 173 179 202 191 182 199 209 214 204 187 190 229 228 216 216 230 233 222 224 226 216 222 216 188 183 162 154 164 161 160 157 151 153 161 168 167 167 170 171 171 174 176 181 177 170 164 154 145 140 138 133 129 129 130 136 147 139 127 141 152 151 157 156 157
161 174 192 208 193 182 178 168 166 166 171 177 174 176 177 176 172 168 166 161 169 164 182 216 187 194 224 225 237 238 197 230 238 234 228 228 233 242 236 230 229 215 205 196 194 188 162 153 160 158 160 158 154 151 151 164 170 170 176 178 180 181 184 188 184 177 168 157 152 144 146 151 143 137 132 133 146 153 145 146 155 151 144 151 169
160 168 183 208 201 185 181 172 170 173 175 178 175 180 181 171 162 153 149 153 162 161 197 238 216 234 258 259 269 275 229 234 236 233 233 236 233 237 240 238 238 226 202 187 187 185 168 158 160 161 163 162 158 154 154 163 173 180 186 186 186 187 192 190 181 182 176 160 154 145 147 152 149 150 143 132 130 148 156 156 161 155 139 133 156
164 169 179 201 205 189 182 174 173 177 175 176 176 179 178 162 149 141 143 151 160 165 200 258 274 276 275 291 300 146 205 233 232 225 227 231 231 232 238 242 244 239 225 193 186 184 170 158 160 162 164 166 161 156 157 160 170 188 194 203 200 197 211 202 188 194 189 172 158 144 154 158 154 164 157 147 126 126 147 155 161 163 155 142 139
172 172 177 198 209 193 183 178 175 177 172 172 175 171 165 155 142 135 139 140 146 152 158 294 328 35 122 107 5 129 248 255 229 217 216 218 226 225 228 237 236 234 238 207 191 178 160 154 157 160 166 177 175 164 161 161 167 175 171 190 209 208 228 208 199 211 199 174 128 126 163 171 163 177 166 168 154 122 122 148 175 195 195 182 156
177 176 178 199 213 197 185 182 175 174 169 166 169 160 156 152 138 130 127 123 128 127 95 22 2 25 85 117 142 194 284 273 208 212 197 189 204 209 220 238 235 223 210 193 186 158 150 155 152 162 178 189 192 176 169 169 166 161 141 122 150 175 214 195 191 208 158 87 42 125 158 156 150 189 170 195 209 205 284 346 276 258 260 261 245
180 182 184 199 214 203 188 184 172 168 164 160 159 153 157 154 139 131 121 114 108 90 70 39 30 44 55 101 134 165 235 220 171 172 170 168 183 194 201 225 235 217 193 190 194 164 156 157 155 171 189 197 199 181 171 170 161 157 145 140 174 176 106 57 149 83 75 71 268 228 189 214 253 267 276 236 255 280 298 350 347 308 293 305 288
185 188 189 198 211 203 186 181 170 163 160 159 157 157 168 165 145 128 114 105 96 87 84 67 55 79 90 107 122 149 210 205 157 160 166 164 183 205 197 196 226 219 205 210 214 200 165 158 170 182 194 201 197 175 165 162 151 150 149 153 177 180 91 35 45 12 50 258 259 261 260 255 253 263 267 267 304 322 319 356 348 285 326 357 312
192 191 191 195 201 191 176 176 174 163 158 163 162 160 165 162 154 146 136 128 122 118 111 103 95 86 93 108 118 131 178 189 165 161 153 158 182 217 198 184 211 208 213 224 221 219 184 173 190 193 202 203 188 173 167 163 153 146 148 154 167 172 142 83 66 72 136 211 245 246 215 213 227 242 252 279 300 336 352 24 41 33 23 358 338
193 191 188 186 187 185 177 173 174 168 164 166 165 163 162 162 164 160 148 141 140 134 127 117 107 95 88 94 108 120 121 110 127 140 134 143 168 201 201 193 205 192 199 217 209 205 189 184 193 197 207 203 186 178 174 171 164 158 158 159 164 164 136 124 118 111 121 135 161 175 164 156 149 139 81 66 53 49 55 64 65 68 63 5 348
188 187 186 182 181 183 181 174 172 173 170 168 168 167 166 166 163 155 145 139 138 133 126 118 110 104 97 93 102 113 112 106 108 124 126 124 147 182 205 192 189 178 179 194 190 184 183 182 185 194 209 211 200 187 181 187 186 175 168 162 162 159 140 129 115 100 113 116 120 129 128 134 124 106 89 84 82 76 75 67 57 58 65 64 39
183 184 187 186 184 183 182 178 172 173 172 171 171 167 164 162 153 147 144 139 131 120 116 115 111 106 102 100 104 108 113 114 111 114 120 124 145 165 180 180 168 167 176 184 181 180 182 181 184 195 206 206 204 197 193 203 207 182 172 181 178 161 155 155 132 106 115 116 118 126 122 121 112 103 95 80 68 64 62 58 56 57 56 54 51
183 187 191 189 187 184 182 177 172 172 170 169 168 163 158 153 146 142 137 134 130 123 119 115 112 108 105 105 106 113 117 114 114 114 113 116 130 151 161 171 172 172 183 185 178 179 182 181 183 193 204 201 196 201 201 209 221 199 190 209 185 159 172 169 138 114 119 118 112 112 105 103 101 97 93 83 69 59 55 52 54 55 53 49 39
187 190 192 191 188 185 183 178 174 172 167 167 167 162 159 154 147 144 138 135 134 133 131 124 123 121 114 113 116 125 122 111 109 106 102 99 99 119 138 160 175 175 178 176 170 171 174 180 186 193 207 209 199 201 202 205 224 228 238 257 183 180 182 157 141 117 112 108 102 105 98 88 87 83 78 75 72 66 60 57 57 56 50 45 34
193 193 192 192 190 186 186 182 177 174 169 168 169 166 163 159 154 152 151 148 144 142 141 136 136 131 122 121 124 130 125 115 105 90 93 102 106 113 116 166 196 182 182 180 167 167 172 177 188 198 204 202 198 198 194 197 215 228 241 260 252 258 186 159 158 130 114 103 92 96 95 87 82 78 73 69 69 67 63 62 63 61 56 53 49
194 193 194 194 190 187 188 186 179 175 172 169 171 171 166 164 161 158 153 150 146 142 141 139 135 130 126 127 128 132 132 123 112 91 92 99 100 108 120 130 151 172 193 197 181 180 179 172 181 198 197 191 193 195 187 186 196 212 228 238 252 264 195 175 178 151 137 120 101 95 89 85 81 77 75 72 71 69 66 66 67 65 62 60 58
191 189 192 193 190 188 188 185 179 176 173 171 173 172 167 167 166 157 148 147 146 143 143 139 132 128 126 126 127 130 135 128 118 108 101 96 89 97 118 120 120 140 157 175 173 166 161 154 165 183 187 191 199 198 190 190 194 194 204 216 228 222 194 194 198 169 152 137 127 109 90 86 83 80 78 75 75 75 71 69 69 69 66 64 63
188 186 187 186 186 187 184 178 172 171 172 171 172 170 166 168 167 158 149 141 139 142 142 139 134 130 129 128 127 127 131 126 117 117 107 94 90 93 119 126 117 123 120 118 116 108 118 137 157 171 175 189 205 202 192 192 195 186 185 193 198 191 180 184 198 183 157 146 142 121 109 103 92 84 81 82 81 79 76 72 70 71 70 68 67
179 177 175 179 182 182 177 169 163 160 165 169 168 166 165 168 167 159 148 137 137 143 142 143 143 137 134 133 133 132 132 130 122 121 112 98 91 84 110 126 115 113 107 100 100 99 112 134 150 165 168 174 187 194 188 186 188 186 186 188 182 175 170 170 184 188 169 152 139 134 139 135 109 93 88 89 90 85 81 75 71 69 69 70 69
161 162 169 180 182 179 171 161 151 149 156 165 167 164 163 166 164 157 150 142 143 147 146 150 151 143 141 138 137 135 129 131 131 126 115 98 88 75 96 120 114 106 98 87 85 86 101 129 141 153 162 166 171 178 177 174 180 182 184 187 179 176 177 176 181 186 181 160 144 146 147 136 120 110 104 98 93 88 82 76 71 68 67 66 67